Change the Weather History Date:

Friday, November 2, 2012

  Actual Average Record
Temperature  
Mean Temperature 64 °F -  
Max Temperature 75 °F 72 °F 82 °F (2006)
Min Temperature 53 °F 51 °F 48 °F (2007)
Degree Days  
Heating Degree Days 1    
Growing Degree Days 14 (Base 50)    
Moisture  
Dew Point 38 °F    
Average Humidity 41    
Maximum Humidity 67    
Minimum Humidity 23    
Precipitation  
Precipitation 0.00 in - - ()
Sea Level Pressure  
Sea Level Pressure 30.26 in    
Wind  
Wind Speed 5 mph ()    
Max Wind Speed 20 mph    
Max Gust Speed -    
Visibility 6.2 miles    
Events      
Averages and records for this station are not official NWS values.
T = Trace of Precipitation, MM = Missing Value Source: Averaged Metar Reports

Daily Weather History Graph

Daily Weather History Graph

Search for Another Location

Airport or City:

Trip Planner

Search our weather history database for the weather conditions in past years. The results will help you decide how hot, cold, wet, or windy it might be!

Date:

Astronomy

Nov. 02, 2012 Rise Set
Actual Time 6:08 AM AST 5:35 PM AST
Civil Twilight 5:46 AM AST 5:58 PM AST
Nautical Twilight 5:20 AM AST 6:24 PM AST
Astronomical Twilight 4:54 AM AST 6:49 PM AST
Moon 8:20 PM AST (11/2) 8:55 AM AST (11/2)
Length of Visible Light 12h 11m
Length of Day
11h 26m
Waning Gibbous, 89% of the Moon is Illuminated
Nov 2
Waning Gibbous
Nov 7
Last Quarter
Nov 14
New
Nov 20
First Quarter
Nov 28
Full

Hourly Weather History & Observations

Time (AST) Temp. Dew Point Humidity Pressure Visibility Wind Dir Wind Speed Gust Speed Precip Events Conditions
12:00 AM 59.0 °F 42.8 °F 55% 30.27 in - East 6.9 mph - N/A   Clear
1:00 AM 57.2 °F 44.6 °F 63% 30.27 in - East 4.6 mph - N/A   Clear
2:00 AM 55.4 °F 44.6 °F 67% 30.27 in - Calm Calm - N/A   Clear
3:00 AM 55.4 °F 41.0 °F 58% 30.24 in - Calm Calm - N/A   Clear
4:00 AM 55.4 °F 35.6 °F 47% 30.24 in - Calm Calm - N/A   Clear
5:00 AM 53.6 °F 35.6 °F 51% 30.27 in - Calm Calm - N/A   Clear
6:00 AM 53.6 °F 37.4 °F 54% 30.27 in - Calm Calm - N/A   Clear
7:00 AM 53.6 °F 37.4 °F 54% 30.30 in - Calm Calm - N/A   Clear
8:00 AM 59.0 °F 37.4 °F 45% 30.30 in - Calm Calm - N/A   Clear
9:00 AM 64.4 °F 37.4 °F 37% 30.30 in - ESE 11.5 mph - N/A   Clear
10:00 AM 66.2 °F 39.2 °F 37% 30.33 in - East 9.2 mph - N/A   Clear
11:00 AM 68.0 °F 41.0 °F 37% 30.33 in - SSW 9.2 mph - N/A   Clear
12:00 PM 71.6 °F 44.6 °F 38% 30.30 in 6.2 mi East 6.9 mph - N/A   Partly Cloudy
1:00 PM 75.2 °F 44.6 °F 34% 30.30 in 6.2 mi SSW 6.9 mph - N/A   Partly Cloudy
2:00 PM 73.4 °F 42.8 °F 33% 30.27 in 6.2 mi SSW 11.5 mph - N/A   Partly Cloudy
3:00 PM 73.4 °F 33.8 °F 23% 30.21 in 6.2 mi NNE 9.2 mph - N/A   Partly Cloudy
4:00 PM 71.6 °F 32.0 °F 23% 30.21 in 6.2 mi ENE 9.2 mph - N/A   Partly Cloudy
5:00 PM 68.0 °F 35.6 °F 30% 30.21 in 6.2 mi East 19.6 mph - N/A   Partly Cloudy
6:00 PM 68.0 °F 33.8 °F 28% 30.21 in 6.2 mi ENE 16.1 mph - N/A   Partly Cloudy
7:00 PM 66.2 °F 35.6 °F 32% 30.21 in 6.2 mi ENE 13.8 mph - N/A   Partly Cloudy
8:00 PM 66.2 °F 33.8 °F 30% 30.21 in 6.2 mi ENE 13.8 mph - N/A   Partly Cloudy
9:00 PM 64.4 °F 35.6 °F 34% 30.21 in 6.2 mi SSW 6.9 mph - N/A   Partly Cloudy
10:00 PM 64.4 °F 35.6 °F 34% 30.21 in - SSW 6.9 mph - N/A   Clear
11:00 PM 64.4 °F 33.8 °F 32% 30.21 in - ENE 4.6 mph - N/A   Clear